Location: Cormeilles
(48.9711°N, 2.2049°E)
Time: 09:03:04
(UTC+00:00)

Daily predictions for brighter satellites

Satellite Brightness Start Highest point End
(mag) Time Altitude Azimuth Time Altitude Azimuth Time Altitude Azimuth
Meteor 1-5 Rocket 4.3 20:01:06 10° N 20:06:24 59° ENE 20:11:37 10° SSE
SJ-6B 4.2 20:04:56 10° S 20:08:41 41° W 20:12:32 10° NNW
BREEZE M DEB (TANK) 4.3 20:04:53 10° W 20:08:54 88° N 20:23:20 10° E
ERS-2 3.5 20:06:00 10° N 20:09:28 43° WNW 20:12:55 10° SW
Terra 3.6 20:13:18 10° E 20:16:30 18° ENE 20:19:42 10° NNE
MetOp-B 4.3 20:12:18 10° SSE 20:17:33 60° ENE 20:22:50 10° N
Meteor 1-11 Rocket 4.4 20:12:04 10° N 20:17:46 44° ENE 20:23:20 10° SE
Cosmos 1515 Rocket 3.6 20:16:13 10° S 20:20:32 59° E 20:24:51 10° NNE
Cosmos 1633 Rocket 4.0 20:17:52 10° NNW 20:22:09 50° W 20:26:25 10° SSW
Cosmos 2228 Rocket 4.1 20:19:33 10° SSE 20:23:23 29° E 20:27:17 10° NNE
Tianhe-1 2.9 20:21:39 10° SSW 20:23:35 15° SSE 20:25:05 12° SE
Cosmos 2315 Rocket 4.2 20:17:50 10° SSW 20:24:13 81° W 20:30:38 10° N
Resurs 01 Rocket 1.7 20:22:41 10° SSE 20:27:07 83° WSW 20:31:36 10° NNW
BREEZE M DEB (TANK) 1.9 20:23:58 10° WNW 20:29:09 78° SSW 20:31:13 12° ESE
SWARM C 4.5 20:26:19 10° N 20:29:38 69° E 20:32:56 10° S
SWARM A 4.2 20:26:26 10° N 20:29:46 72° E 20:33:03 10° S
Cosmos 2082 Rocket 2.2 20:24:28 10° NNW 20:30:08 87° ENE 20:35:40 11° SSE
Cosmos 1328 Rocket 4.1 20:27:12 10° SSW 20:31:34 63° WNW 20:35:57 10° N
USA 305 4.2 20:29:13 10° WNW 20:32:58 30° SW 20:36:40 10° SSE
SPOT 1/Viking Rocket 3.7 20:27:59 10° SSE 20:33:07 64° ENE 20:38:15 10° N
ERS-1 Rocket 3.9 20:29:27 11° SE 20:33:46 35° ENE 20:38:18 10° N
Cosmos 1943 Rocket 3.3 20:35:05 10° SSE 20:39:22 24° ESE 20:43:42 10° NE
Cosmos 1470 Rocket 4.2 20:35:11 10° NNW 20:39:37 57° W 20:43:59 10° S
Spot 2 Rocket 3.8 20:35:19 12° SE 20:39:57 56° ENE 20:44:52 10° N
EP 1 4.3 20:37:51 10° SW 20:40:58 83° SE 20:43:37 10° NE
OBJECT-B 3.7 20:40:05 10° WSW 20:41:48 14° W 20:43:32 10° WNW
ERBS 2.9 20:38:52 10° NW 20:42:05 48° NNE 20:44:57 12° ESE
Meteor 1-10 Rocket 4.2 20:37:29 10° S 20:43:01 67° E 20:48:43 10° NNE
Cosmos 1536 3.4 20:41:58 10° N 20:45:50 42° ENE 20:48:44 16° SE
CARTOSAT-1 3.9 20:42:26 14° SE 20:45:57 51° ENE 20:50:09 10° N
Landsat 7 4.0 20:41:23 10° S 20:46:07 71° WSW 20:50:54 10° NNW
SPOT 5 3.7 20:42:26 13° SE 20:46:43 44° ENE 20:51:47 10° N
CZ-2C R/B 3.7 20:42:37 10° NNE 20:47:10 69° ESE 20:51:44 10° S
SPOT 3 Rocket 4.0 20:44:27 10° S 20:49:32 62° WSW 20:54:40 10° NNW
Cosmos 1271 Rocket 2.7 20:45:55 10° S 20:49:54 79° E 20:53:55 10° NNE
COSMOS 2406 4.4 20:46:40 10° NW 20:51:50 37° WSW 20:56:59 10° S
Cosmos 1680 Rocket 3.6 20:47:54 10° NNW 20:53:15 72° ENE 20:57:31 16° SSE
Cosmos 1933 Rocket 4.0 20:49:03 10° NNW 20:53:21 62° W 20:57:38 10° S
ISS -3.6 20:51:23 10° SW 20:54:38 48° SSE 20:57:54 10° ENE
Cosmos 2278 Rocket 2.8 20:50:20 10° SW 20:55:56 61° WNW 21:01:34 10° NNE
Cosmos 2084 Rocket 3.5 20:53:24 10° NW 20:57:40 74° NE 21:00:52 18° SE
SJ 16-02 1.9 20:54:07 10° SSW 20:58:30 62° WNW 21:02:55 10° NNE
Cosmos 1544 3.7 20:55:45 10° N 20:59:13 41° ENE 21:01:17 20° SE
Cosmos 2369 Rocket 3.6 20:58:46 16° SE 21:00:49 19° E 21:04:39 10° ENE
Cosmos 1666 3.7 21:02:18 10° NNW 21:05:51 42° W 21:09:22 10° SSW
JB-3 4.3 21:05:23 10° NNE 21:09:12 60° E 21:12:01 17° S
Cosmos 1733 Rocket 4.1 21:06:15 10° N 21:10:09 31° ENE 21:12:25 20° ESE
ARIANE 5 R/B 2.6 21:10:14 17° S 21:13:30 82° WSW 21:17:52 10° NNW
Cosmos 1812 4.5 21:11:00 10° SW 21:14:29 32° WNW 21:18:00 10° N
RESURS DK-1 4.2 21:11:29 10° N 21:14:48 22° NE 21:17:43 12° E
BREEZE-M DEB (TANK) 1.2 21:16:23 10° W 21:18:22 57° SSW 21:18:57 39° SE
Iridium 4 Rocket 4.1 21:13:17 10° S 21:19:08 72° W 21:25:02 10° N
USA 245 3.5 21:18:30 20° SSW 21:19:35 31° W 21:21:49 10° NNW
Cosmos 990 Rocket 4.0 21:19:19 10° SSW 21:24:33 87° ESE 21:29:51 10° NNE
Cosmos 1898 Rocket 3.5 21:22:15 10° SSW 21:27:33 76° ESE 21:32:54 10° NNE
ATLAS 2AS CENTAUR R/B 3.0 21:22:34 10° NW 21:29:48 61° WSW 21:34:30 21° SSE
USA 215 4.4 21:24:00 10° ENE 21:30:07 44° N 21:36:14 10° WNW
Meteor 1-27 Rocket 3.9 21:25:10 10° SSW 21:31:03 83° WNW 21:37:02 10° N
SL-24 R/B - RUBIN 2 4.3 21:25:54 10° NW 21:31:12 54° WSW 21:34:02 23° S
Cosmos 44 4.0 21:27:32 10° NW 21:32:49 53° WSW 21:35:56 23° S
Cosmos 1818 3.6 21:30:05 10° NW 21:35:35 75° SW 21:38:46 26° SSE
Cosmos 2154 Rocket 4.3 21:29:39 10° NNW 21:35:56 68° W 21:40:59 16° S
Cosmos 1743 2.6 21:33:27 10° N 21:37:20 86° E 21:39:06 31° SSE
Cosmos 962 Rocket 4.4 21:34:39 10° N 21:40:48 82° E 21:44:46 24° SSE
Nadezhda 1 Rocket 4.2 21:35:54 10° SSW 21:42:10 72° W 21:48:22 10° N
Meteor 1-19 Rocket 4.5 21:43:17 27° SSE 21:45:54 47° E 21:51:05 10° NNE
BREEZE-M R/B 1.7 21:45:00 10° W 21:47:25 90° W 21:47:59 51° E
H-2A R/B 3.4 21:46:14 10° NNE 21:50:25 74° ESE 21:52:23 30° S
Terra 1.9 21:51:09 27° S 21:53:44 71° WSW 21:58:30 10° NNW
Gbstr 26 Del rocket 4.3 21:47:18 10° WNW 21:54:46 60° SW 21:58:21 27° SE
Cosmos 1461 3.0 21:50:35 10° SSW 21:55:17 79° SE 21:59:55 10° NE
Okean 1-7 4.5 21:56:31 21° E 21:57:11 22° E 22:00:29 10° NE
Cosmos 1340 Rocket 3.7 21:54:26 10° NNW 21:58:18 43° W 22:00:21 24° SSW
Cosmos 1862 Rocket 3.5 21:57:49 36° SSE 21:59:25 64° E 22:03:42 10° NNE
Cosmos 2297 3.9 21:55:04 10° SW 22:00:44 71° WNW 22:06:26 10° NNE
Okean 1 3.2 22:00:54 38° S 22:02:23 81° E 22:06:22 10° NNE
ATLAS CENTAUR R/B 2.4 22:10:15 26° E 22:10:15 26° E 22:12:40 10° ENE
Cosmos 1607 4.2 22:06:38 26° S 22:10:02 49° ESE 22:16:15 10° NE
ERS-1 Rocket 4.1 22:09:26 19° SSW 22:12:31 36° W 22:17:11 10° NNW
Cosmos 2082 Rocket 4.3 22:10:02 10° WNW 22:13:26 17° W 22:16:51 10° SW
Cosmos 1515 4.1 22:13:58 31° SW 22:15:31 59° WNW 22:19:16 10° N
Cosmos 2366 rocket 3.9 22:09:34 10° N 22:15:48 85° E 22:18:59 31° SSE
ERBS 3.7 22:15:13 10° WNW 22:17:42 26° WSW 22:17:42 26° WSW
Cosmos 2181 Rocket 3.9 22:16:13 27° S 22:19:44 86° E 22:25:53 10° N
Cosmos 1937 Rocket 4.1 22:17:05 10° SW 22:22:07 55° WNW 22:27:14 10° NNE
Cosmos 1943 Rocket 2.5 22:17:03 10° SW 22:22:39 64° WNW 22:28:13 10° NNE
SPOT 5 4.5 22:21:39 17° SW 22:24:55 31° W 22:29:38 10° NNW
ISS -3.2 22:28:06 10° W 22:31:27 59° N 22:34:48 10° ENE
Cosmos 1867 3.5 22:28:40 29° SSW 22:31:27 69° SE 22:36:55 10° NE
Cosmos 1656 Rocket 3.7 22:30:08 37° S 22:32:03 58° ESE 22:37:31 10° NE
Spot 4 4.0 22:30:35 39° SE 22:32:17 64° ENE 22:37:06 10° N
Cosmos 1238 Rocket 4.2 22:29:55 10° NNW 22:35:30 48° W 22:37:52 28° SSW
Cosmos 1975 3.2 22:36:23 10° NNW 22:40:18 56° W 22:41:09 45° SW
Cosmos 1048 Rocket 3.9 22:35:38 10° NNW 22:40:59 85° WSW 22:42:47 43° SSE
Cosmos 2369 Rocket 2.2 22:40:29 23° SW 22:44:10 78° WNW 22:49:52 10° NNE
Cosmos 2098 4.2 22:42:03 10° N 22:44:52 78° N 22:44:52 78° N
Cosmos 2218 Rocket 4.3 22:39:16 10° NNW 22:45:28 60° W 22:48:39 29° SSW
Cosmos 2344 4.3 22:37:47 10° NW 22:46:48 81° NE 22:56:38 19° SE
ALOS 2 3.0 22:47:43 40° ESE 22:48:51 52° ENE 22:53:07 10° N
BREEZE-M DEB (TANK) 4.5 22:33:25 10° WNW 22:50:21 69° SSW 22:52:48 34° SE
Okean 3 4.0 22:51:44 40° ESE 22:52:08 41° E 22:56:07 10° NNE
RESURS DK-1 2.6 22:49:03 10° NW 22:53:07 53° WSW 22:53:36 49° SW
SL-27 R/B 2.3 22:49:49 10° NNW 22:53:01 79° WNW 22:53:01 79° WNW
Lacrosse 5 2.7 22:54:17 32° ESE 22:54:17 32° ESE 22:58:11 10° ENE
Cosmos 1356 Rocket 3.6 22:52:38 10° N 22:56:55 63° ENE 22:57:43 51° SE
NOSS 2-1 (E) 4.4 22:52:20 10° NW 22:57:05 68° NE 23:00:42 26° ESE
Cosmos 1300 Rocket 4.3 22:57:48 10° N 23:01:59 41° ENE 23:02:56 36° ESE
Nadezhda 3 Rocket 4.0 22:59:44 39° SSE 23:02:08 69° E 23:08:17 10° NNE
Cosmos 1908 Rocket 4.3 23:03:44 10° NNW 23:08:01 45° W 23:09:03 38° SW
Meteor 1-12 Rocket 4.2 23:04:25 10° NNW 23:10:18 89° E 23:12:18 43° SSE
Cosmos 2298 Rocket 4.1 23:09:55 35° SW 23:12:10 75° WNW 23:17:29 10° NNE
USA 215 3.9 23:06:11 10° E 23:12:31 55° NNE 23:18:52 10° WNW
Thor Agena Rocket 4.3 23:09:37 10° NNE 23:14:33 38° E 23:15:40 34° SE
Sich 1 Rocket 3.8 23:11:13 10° N 23:15:45 64° ENE 23:16:39 51° SE
COSMOS 2455 3.7 23:11:33 10° NNW 23:17:22 46° NE 23:21:46 17° ESE
Cosmos 1805 3.5 23:14:17 10° N 23:18:09 56° ENE 23:18:27 54° E
Cosmos 494 Rocket 4.2 23:14:15 10° NNW 23:19:19 55° WSW 23:20:30 44° SSW
Cosmos 1378 3.0 23:22:00 81° WSW 23:22:04 82° W 23:25:49 10° N
Cosmos 2242 Rocket 4.2 23:21:30 37° WSW 23:22:48 49° WNW 23:27:11 10° N
Cosmos 1066 Rocket 4.2 23:22:33 45° SSE 23:24:19 72° E 23:29:55 10° NNE
Okean 2 Rocket 3.3 23:22:59 10° N 23:27:21 58° ENE 23:28:09 49° ESE
COBE Rocket 3.9 23:26:12 50° S 23:27:36 84° WSW 23:32:49 10° NNW
Meteor 1-15 Rocket 4.3 23:22:15 10° N 23:28:01 79° ENE 23:30:02 43° SSE
Cosmos 2151 Rocket 4.2 23:24:57 10° N 23:29:21 48° ENE 23:30:21 41° ESE
Cosmos 2227 Rocket 3.8 23:27:37 10° NNW 23:32:34 30° NE 23:37:30 10° ESE
Cosmos 44 Rocket 3.6 23:29:02 10° NW 23:34:07 53° WSW 23:34:54 48° SSW
Okean 1-7 4.0 23:33:21 33° WSW 23:34:29 40° WNW 23:38:34 10° N
Cosmos 2297 Rocket 3.4 23:29:38 10° NNW 23:34:56 38° NE 23:39:09 15° ESE
SAR-Lupe-2 3.5 23:32:02 10° NNE 23:35:36 84° NW 23:35:36 84° NW
Cosmos 1766 3.4 23:32:45 10° N 23:36:41 62° ENE 23:36:58 59° ESE
Cosmos 1782 Rocket 4.4 23:36:25 10° NNW 23:40:31 38° W 23:41:12 35° WSW
NOSS 2-1 (C) 4.3 23:38:34 10° NW 23:43:24 62° SW 23:45:14 43° S
COSMOS 2487 2.7 23:43:17 10° NNW 23:46:11 58° NW 23:46:11 58° NW
Cosmos 1125 Rocket 4.0 23:44:32 30° WSW 23:46:52 53° WNW 23:51:59 10° NNE
ATLAS CENTAUR R/B 2.6 23:46:20 21° W 23:48:08 34° NW 23:51:41 10° NNE
NOSS 2-1 (D) 4.4 23:45:29 10° NW 23:50:19 56° SW 23:51:55 43° S
Cosmos 1934 Rocket 3.9 23:45:14 10° NNW 23:51:20 74° W 23:53:27 42° S
BREEZE-M DEB (TANK) 4.1 23:50:21 10° WNW 23:51:45 21° WNW 23:51:45 21° WNW
Cosmos 1378 Rocket 4.2 23:53:20 38° ESE 23:53:53 40° E 23:57:56 10° NNE
Cosmos 1470 3.8 23:52:36 10° N 23:56:17 37° ENE 23:57:01 33° E
